MAYA-1

Last updated on Sat Nov 21 2020 06:02:56 GMT+0000 (Coordinated Universal Time)

1 43590U 98067PE 20324.88139739 .05711489 12232-4 70418-3 0 9992 2 43590 51.6106 192.2490 0007498 248.1886 111.8341 16.35304962130589

Satellite not in orbit